GFSMA_925_thetae_021.txt.gz
Theta_e
326 327 327 327 333 333 334 334 334 332 331 332 331 330 331 331 331 331 331 331 332 328 328 331 335 331 331 327 325 330 337 338 340 337 335 335 332 331 331 333 335 334 334
325 327 326 332 334 335 335 334 333 333 332 332 331 330 331 331 329 330 329 331 331 329 329 330 333 330 330 329 326 326 334 337 338 340 336 336 333 329 331 333 333 334 334
326 327 327 334 335 333 334 335 333 332 333 332 331 330 331 329 329 329 328 330 329 329 330 330 329 330 330 329 331 334 333 336 336 338 337 336 334 330 332 333 333 333 334
326 328 329 335 336 334 337 335 333 333 333 332 331 330 330 329 329 329 328 329 329 329 330 329 328 328 328 328 336 336 332 332 334 336 336 337 337 331 333 331 333 335 335
329 329 332 336 335 336 336 335 334 334 334 333 332 331 331 330 329 329 328 328 328 329 330 329 327 327 327 327 335 335 335 331 332 336 336 338 337 332 332 332 334 335 334
331 334 335 336 336 335 335 335 335 335 333 331 330 330 330 329 328 328 328 328 328 329 329 329 327 328 328 325 331 334 336 335 334 335 336 336 337 335 332 333 333 333 331
339 336 337 336 336 335 334 335 335 333 332 330 329 329 329 329 328 328 328 328 328 329 329 329 327 328 329 328 318 327 335 337 333 336 336 337 336 335 331 333 332 333 327
339 338 337 335 335 335 335 335 333 331 330 329 326 324 323 325 327 328 328 328 329 328 328 328 327 328 329 329 328 323 328 333 337 335 336 337 336 335 332 333 334 328 324
339 338 334 335 336 335 334 332 330 329 329 327 327 324 322 322 323 325 327 328 328 328 328 328 327 328 327 329 329 327 324 330 336 337 338 337 336 334 333 333 326 323 322
338 335 336 335 334 333 331 329 328 329 328 327 326 326 324 324 324 324 325 326 328 328 327 327 328 326 327 329 330 329 324 329 329 337 338 336 335 334 330 324 319 317 319
336 336 335 333 331 329 328 328 328 328 328 328 326 324 325 325 325 323 325 323 327 328 327 327 326 327 328 329 330 329 325 325 329 334 337 336 333 330 325 323 318 324 320
334 333 331 330 326 327 328 328 328 328 328 327 327 325 324 323 323 325 323 320 323 326 327 327 328 328 327 327 328 331 331 330 332 334 335 333 332 328 324 324 321 318 320
331 331 330 328 326 327 328 329 329 328 327 327 326 326 326 325 324 324 323 319 321 325 327 328 328 328 328 327 329 330 328 332 331 334 335 333 329 325 323 321 323 323 323
331 330 329 328 327 327 329 330 329 328 328 328 328 327 325 325 325 324 324 322 326 327 327 326 326 327 328 329 330 330 328 332 332 335 334 331 326 318 317 321 323 323 320
329 328 328 327 327 328 330 330 330 329 328 328 328 327 326 325 325 326 324 325 324 326 324 326 327 329 330 329 330 329 330 332 333 334 330 325 320 320 319 323 321 317 311
327 327 327 327 328 329 329 329 329 329 328 328 328 328 327 326 327 326 326 325 326 325 326 326 326 330 330 331 331 331 332 332 333 332 326 322 319 318 321 320 318 321 315
326 326 327 326 328 328 328 329 329 328 327 328 327 328 328 328 327 328 328 327 327 326 324 325 327 329 330 327 328 328 329 329 328 327 322 316 319 319 321 317 316 315 321
327 328 328 327 327 328 328 329 329 329 328 328 328 329 329 328 328 328 329 328 326 326 324 325 325 324 322 322 323 322 321 322 321 319 317 317 321 321 318 316 320 322 322
327 327 327 327 329 329 329 328 330 329 329 329 329 328 329 329 329 328 327 326 325 324 325 325 323 321 319 319 320 319 319 321 318 316 317 319 319 318 317 319 320 318 317
326 326 328 329 329 330 330 330 329 329 329 329 329 329 329 329 328 326 324 324 324 324 323 322 320 320 319 317 317 316 317 317 317 317 317 318 317 316 320 316 314 311 316
326 328 330 329 329 329 329 329 328 328 329 329 329 329 329 329 327 326 324 323 323 324 323 321 320 319 320 319 319 318 317 316 316 317 318 317 319 316 314 314 313 316 316
327 329 330 329 327 329 330 329 329 329 329 328 328 328 328 327 325 324 324 323 323 323 323 322 320 320 320 320 318 318 317 318 317 319 318 317 316 316 315 315 317 317 314
327 329 329 328 324 327 329 330 329 328 328 328 327 327 325 325 324 323 323 323 323 323 323 321 321 320 320 319 318 318 318 317 317 316 317 315 317 316 317 318 317 314 309
327 329 328 325 323 328 330 330 329 328 327 327 327 326 325 324 323 323 322 323 323 323 323 322 321 320 319 319 318 318 318 317 316 316 316 311 312 315 315 314 310 306 304
329 328 327 325 323 328 331 331 330 328 326 326 326 325 325 324 323 322 323 322 323 323 323 322 321 320 319 319 319 318 318 316 314 313 315 314 309 306 305 304 303 301 299
328 328 327 326 324 329 331 330 329 329 327 325 323 325 324 324 323 322 323 323 322 323 323 322 322 320 320 320 319 319 318 315 314 314 314 312 307 305 302 301 300 299 299

GFSMA_925_thetae_024.txt.gz
Theta_e
323 324 324 325 324 327 333 334 335 334 332 331 331 331 330 330 330 330 330 330 330 330 329 333 336 330 331 331 329 325 330 335 337 338 335 333 333 334 333 334 335 334 333
325 323 324 326 325 328 333 334 334 334 333 331 331 331 331 330 331 330 329 330 329 330 329 328 331 334 330 330 328 326 326 335 337 337 335 334 335 332 332 331 333 334 334
326 323 323 326 325 329 333 334 334 333 333 332 332 332 331 330 331 329 329 328 328 330 329 328 328 329 330 331 331 329 325 331 336 337 337 335 336 332 330 332 333 332 334
330 324 324 326 325 329 335 333 334 334 332 333 333 332 331 330 330 329 329 328 328 329 329 328 328 328 329 329 333 333 332 329 334 336 336 336 336 330 331 333 332 333 335
331 327 326 325 325 333 335 334 335 333 333 333 333 333 331 331 330 330 329 329 328 328 329 329 329 328 327 327 333 335 335 329 330 334 335 336 336 334 330 332 331 333 334
332 330 328 328 327 336 335 336 334 334 333 334 332 330 329 330 330 330 329 328 328 328 328 330 329 327 326 327 327 334 335 335 328 331 334 335 335 336 331 331 332 335 331
333 331 331 328 333 335 335 334 334 334 333 331 326 328 328 329 329 329 328 328 327 328 328 329 329 327 327 329 327 326 333 332 334 331 334 335 335 336 333 332 334 332 327
333 332 331 332 335 335 334 334 334 333 331 329 327 323 327 325 326 327 327 327 327 328 328 328 328 327 327 329 328 320 324 329 336 332 333 336 336 335 334 332 334 329 321
336 335 335 335 336 335 334 334 334 331 329 327 327 325 325 327 323 324 327 328 328 328 328 328 327 327 328 328 329 328 323 326 331 334 334 335 335 335 333 333 330 322 319
338 338 337 336 335 335 335 333 331 329 328 326 325 326 323 322 326 327 325 326 327 327 327 327 327 327 327 327 329 329 327 324 329 333 335 335 335 334 333 331 323 321 315
339 338 337 334 335 334 332 329 328 328 328 327 326 324 325 324 324 326 327 324 325 326 326 326 327 327 326 328 329 329 326 325 328 329 336 335 334 333 331 323 320 318 319
336 335 335 335 333 330 327 327 328 327 327 327 327 325 324 323 324 326 326 322 324 325 326 326 327 326 328 329 330 328 326 324 327 330 334 335 333 328 324 321 321 319 318
335 335 334 331 329 326 327 327 328 328 328 327 326 326 325 324 323 324 323 322 323 325 326 327 327 328 328 327 327 329 331 329 327 331 335 333 332 328 325 324 321 318 322
333 332 331 329 326 327 327 328 329 328 327 327 327 326 326 325 325 324 323 323 327 327 325 325 327 327 327 327 328 330 328 332 332 332 334 331 329 325 324 320 317 319 322
331 330 329 328 327 326 327 329 329 329 328 328 327 327 326 325 325 325 324 324 326 328 327 325 326 326 328 328 329 329 329 330 332 333 333 328 324 322 318 316 322 320 321
328 328 328 327 327 327 329 329 329 329 328 327 327 327 327 325 324 324 325 324 325 324 326 325 326 327 328 329 329 329 328 331 331 333 329 326 321 318 320 320 319 313 319
326 327 326 326 327 328 328 328 328 328 328 327 327 327 327 327 326 326 326 326 324 325 325 325 327 329 330 330 329 328 330 332 332 330 324 321 319 317 322 320 316 316 316
326 326 327 327 327 327 327 327 328 328 328 327 328 327 328 328 327 327 327 327 326 325 325 326 324 323 324 327 327 327 327 325 323 323 320 319 320 321 319 322 321 318 320
327 327 326 326 329 328 328 328 328 329 328 328 328 328 328 328 327 327 326 326 325 325 325 324 321 320 320 321 321 320 321 319 321 320 320 320 320 319 317 316 318 322 322
326 326 328 328 328 329 329 329 329 329 329 328 328 328 328 328 327 327 325 325 324 324 324 321 319 319 319 319 319 319 318 317 317 317 320 319 318 317 317 321 319 318 317
325 328 329 329 328 329 328 329 328 328 328 328 329 329 328 328 327 326 324 324 324 323 322 321 320 318 318 318 318 317 317 317 317 318 318 319 319 319 317 314 312 312 316
326 329 329 328 326 329 329 329 328 329 327 328 328 328 329 326 325 324 324 324 324 322 321 320 319 319 318 317 317 317 316 316 316 317 317 316 317 316 314 313 313 316 316
328 329 328 327 323 328 329 329 328 328 327 327 326 326 325 324 324 323 323 323 323 322 322 320 320 319 319 318 317 317 316 317 316 316 317 313 315 315 315 315 316 317 314
328 329 328 324 324 329 330 329 328 327 327 327 327 326 324 324 323 323 323 323 323 322 320 320 320 319 318 318 318 317 317 316 316 316 316 311 313 314 315 316 317 314 309
328 328 326 324 324 329 330 328 327 327 327 326 326 325 324 323 322 323 323 322 321 321 321 320 319 319 318 318 318 317 317 316 314 314 314 314 312 314 314 313 312 308 304
328 327 325 325 325 330 330 328 327 326 325 325 325 324 324 322 322 323 322 321 321 320 320 319 319 319 319 319 318 318 317 316 314 314 314 314 312 310 306 307 306 304 301

GFSMA_925_thetae_030.txt.gz
Theta_e
335 336 333 333 335 333 335 338 338 339 339 338 336 335 335 334 334 334 333 334 330 330 329 330 334 334 334 332 330 330 331 328 331 335 337 330 335 334 334 333 331 329 330
336 335 334 334 333 334 333 335 338 338 339 337 337 336 336 335 335 334 333 334 331 329 328 330 334 335 335 334 331 331 330 326 329 336 337 336 335 333 334 334 333 330 331
335 335 335 334 332 333 334 334 337 340 337 336 336 337 337 336 335 335 335 334 334 332 328 329 330 333 336 336 332 331 330 327 328 334 334 336 335 334 335 334 334 333 332
338 337 333 334 331 332 333 331 337 335 337 336 337 336 337 335 335 335 335 334 333 333 332 329 329 328 331 336 336 335 330 327 325 332 334 337 335 333 333 333 333 335 333
341 337 336 333 332 332 332 333 333 335 336 339 337 338 337 334 333 334 334 334 334 334 333 332 330 327 328 331 335 335 330 329 326 328 333 335 335 332 334 333 332 333 334
341 339 337 334 334 332 332 331 334 336 340 337 337 335 334 334 332 333 333 333 333 334 334 333 333 329 328 327 328 329 332 330 329 328 334 335 335 327 333 331 331 333 334
341 340 338 337 335 332 331 334 336 339 337 338 337 333 332 332 333 332 332 333 333 333 333 333 332 333 330 327 326 327 333 335 330 327 332 335 335 335 328 332 333 334 332
341 340 339 338 337 333 333 336 337 338 339 337 336 334 333 331 332 332 332 332 332 333 333 333 332 333 333 330 330 328 330 335 330 328 330 334 335 335 333 332 332 332 327
342 341 341 340 338 334 335 336 340 337 336 336 336 333 332 331 331 331 332 332 332 334 334 333 332 333 334 332 332 331 322 329 330 331 330 333 334 335 334 331 332 327 325
342 340 340 340 338 334 335 340 338 336 338 336 333 331 330 329 330 334 332 332 332 333 334 333 332 331 329 331 332 332 327 323 329 328 330 333 334 334 333 332 328 325 324
341 341 340 338 336 336 341 338 338 338 337 332 330 330 330 329 329 331 334 333 332 332 332 333 333 329 325 329 333 332 329 323 329 328 331 332 333 334 333 330 327 326 325
341 341 340 340 340 340 340 338 337 336 334 330 329 329 329 330 329 331 334 332 333 331 331 331 334 332 330 331 332 331 329 325 329 329 332 333 333 334 331 328 326 324 323
342 342 342 342 341 339 338 337 336 333 332 330 331 329 329 328 327 330 330 330 330 329 328 328 329 333 332 332 330 330 329 324 328 329 333 333 334 333 329 327 326 323 323
343 342 342 341 340 339 337 335 332 331 331 331 331 331 330 330 327 330 330 329 332 329 329 328 331 331 332 331 332 329 328 325 329 329 333 333 334 330 327 327 326 325 324
342 341 340 340 338 335 333 333 330 331 331 332 332 332 332 331 327 330 326 326 327 330 331 330 332 333 333 330 330 331 334 324 328 330 332 331 332 328 327 326 324 323 323
339 339 338 336 333 332 332 332 331 332 333 333 332 332 332 331 329 327 326 324 325 329 333 332 332 332 333 333 331 333 334 330 327 330 332 331 329 327 325 325 321 323 324
337 335 333 332 331 331 332 333 333 333 333 333 332 331 331 331 329 328 328 330 330 329 333 331 332 332 332 333 333 331 330 331 330 331 331 330 327 326 321 321 323 324 322
333 331 330 329 330 332 332 332 332 332 332 331 332 331 331 331 330 330 330 331 331 331 331 331 327 327 330 331 330 330 330 330 330 330 330 326 326 318 320 323 323 322 321
330 329 330 330 330 331 332 333 333 332 329 331 332 331 330 331 331 332 332 332 332 332 331 328 324 324 326 328 328 328 327 327 326 326 325 326 320 317 322 322 322 319 316
330 330 330 330 331 332 333 334 331 333 333 332 332 331 331 332 331 332 332 332 332 332 331 327 323 323 322 323 324 322 321 322 323 323 322 318 318 322 316 321 319 317 318
329 330 331 331 332 333 331 333 333 333 329 332 333 332 332 332 331 332 332 332 332 331 328 325 322 322 321 321 321 321 321 320 319 320 319 320 319 317 319 318 319 322 322
331 331 331 331 332 330 329 328 331 331 332 332 333 332 332 330 328 328 329 330 331 330 328 325 322 321 321 320 321 321 320 320 319 318 319 319 320 321 319 320 322 320 316
331 331 331 330 332 332 329 328 329 329 331 331 330 330 329 328 327 326 326 328 328 328 327 326 323 322 321 321 321 320 320 319 319 317 318 316 319 318 317 317 315 315 315
331 331 331 332 333 329 329 328 329 329 327 327 329 329 329 327 327 327 327 327 326 326 325 325 323 321 320 320 321 319 319 318 317 317 317 314 317 319 318 315 313 315 315
332 331 331 332 333 330 328 327 327 326 326 325 325 327 327 327 325 326 327 326 322 324 324 323 321 320 319 319 320 319 317 318 317 317 317 315 315 318 319 317 314 315 315
331 330 331 332 330 330 327 327 327 327 325 324 325 324 324 324 324 325 325 323 320 320 322 320 319 318 318 319 319 319 317 318 319 319 320 320 319 319 320 319 318 314 315

GFSMA_925_thetae_033.txt.gz
Theta_e
335 335 335 334 337 334 335 337 339 340 342 340 338 337 336 335 335 334 334 335 334 329 328 330 335 335 335 333 332 331 331 331 329 336 337 336 335 335 334 334 332 329 329
338 337 337 336 335 336 335 335 338 339 340 340 339 337 337 336 336 335 335 335 334 331 328 328 334 337 336 336 333 330 330 331 329 329 336 337 334 334 335 334 334 331 328
339 339 339 338 335 336 335 336 337 338 339 340 337 338 338 337 337 336 336 334 335 334 331 328 328 333 336 336 337 331 330 329 327 328 336 337 333 334 333 334 334 332 330
343 342 339 338 337 335 336 336 336 335 340 337 336 338 339 338 337 337 335 334 335 334 334 333 329 329 334 336 337 334 330 330 327 326 334 335 336 334 333 334 334 334 332
345 343 341 338 338 336 335 335 334 336 337 337 337 339 340 339 336 335 334 334 333 334 335 333 331 329 328 334 337 337 331 329 327 326 332 333 336 334 334 333 333 333 334
345 345 343 340 338 337 335 334 334 336 335 336 337 340 338 337 336 332 332 332 334 335 334 334 332 332 327 328 335 337 336 330 329 326 333 333 336 335 334 334 333 332 335
345 345 343 342 340 337 336 335 335 336 337 338 338 339 338 335 334 334 331 333 333 334 334 334 333 334 330 328 329 333 334 331 329 327 333 334 334 333 331 332 331 334 334
345 345 343 342 340 338 338 337 336 336 336 341 340 336 335 331 333 334 332 332 334 333 333 334 334 334 332 330 331 329 331 332 329 329 329 335 335 334 332 331 332 333 331
345 344 343 343 342 339 338 337 338 337 339 341 339 336 333 334 335 333 333 332 333 333 333 334 334 334 332 328 330 328 327 332 330 326 327 333 334 333 333 331 333 332 328
343 343 343 342 343 341 338 338 337 338 341 339 337 335 334 332 333 334 333 333 333 334 335 333 334 334 332 328 333 333 322 327 331 331 327 332 334 333 333 332 333 328 324
344 343 343 342 341 340 337 338 341 340 339 337 334 333 331 330 330 332 334 334 334 334 334 334 332 333 335 334 334 332 326 322 328 329 329 331 333 333 333 332 329 326 325
343 342 342 342 341 338 341 342 340 340 338 336 332 331 331 330 331 333 332 335 336 334 332 330 333 332 333 327 331 332 329 322 327 327 330 333 333 334 333 331 325 326 325
342 343 343 341 340 343 342 341 340 339 337 334 333 331 330 330 330 330 332 334 334 332 332 330 333 332 326 325 329 330 329 324 327 328 332 333 333 334 331 327 327 327 325
344 343 343 344 344 342 339 339 338 336 334 333 332 331 332 331 331 330 332 333 333 333 332 332 330 331 331 329 332 327 330 323 328 329 331 333 333 332 329 328 328 326 325
345 345 344 343 341 339 339 339 334 333 332 332 334 333 333 332 332 330 331 330 331 332 334 331 330 329 332 331 331 331 331 324 328 330 333 333 333 330 328 328 326 325 323
344 344 342 340 339 338 336 335 332 332 333 334 333 334 333 333 332 331 327 327 329 330 333 328 330 331 330 331 329 333 332 326 328 330 333 333 331 329 328 326 325 324 322
340 339 338 337 336 334 333 333 334 333 333 335 335 333 333 334 331 330 329 327 326 327 333 331 333 334 332 332 334 333 332 329 329 329 332 332 329 328 326 324 324 322 322
337 336 335 333 332 331 333 334 334 333 333 334 334 332 332 332 332 330 330 331 329 332 329 333 332 332 333 332 331 331 331 329 329 331 330 330 328 326 325 322 323 322 322
334 332 331 330 330 331 333 334 334 334 334 333 332 332 331 332 332 332 333 334 333 331 331 332 328 328 330 330 328 328 329 329 330 330 329 328 326 323 322 324 321 321 321
331 330 330 330 330 332 333 334 334 333 334 330 334 332 331 332 333 333 334 334 334 334 331 329 326 325 325 326 326 325 324 326 323 324 324 324 320 321 323 322 320 320 318
330 330 330 332 332 334 333 335 335 334 334 333 333 333 333 332 332 333 333 333 334 332 330 326 325 323 323 324 324 323 321 321 321 323 322 321 321 322 320 321 320 317 315
330 330 330 332 334 331 329 329 333 333 332 331 333 333 333 331 331 331 331 332 332 331 328 326 326 323 323 323 322 321 321 321 320 319 319 320 319 320 320 320 318 319 322
331 332 331 331 334 330 329 329 331 332 333 332 334 334 333 331 330 329 329 330 331 330 329 328 325 324 322 322 322 322 321 321 319 319 319 319 318 319 319 319 321 321 319
333 334 333 334 334 328 329 328 330 331 331 331 331 332 332 330 330 329 330 330 329 329 328 327 326 323 322 322 322 322 320 319 318 319 319 318 319 319 318 318 319 317 315
333 333 333 334 334 329 327 328 329 327 327 327 329 330 329 329 327 328 329 328 326 327 327 326 324 323 322 322 321 320 319 319 318 318 318 318 318 318 318 319 316 313 314
332 332 333 333 332 329 327 327 328 326 325 325 325 327 328 326 326 327 327 325 323 322 323 322 321 321 321 320 320 321 319 319 318 318 318 320 320 320 321 321 318 314 314

GFSMA_925_thetae_036.txt.gz
Theta_e
334 333 335 335 335 335 334 332 337 338 340 337 339 339 336 335 335 335 336 335 334 334 330 326 324 334 333 332 332 331 330 330 330 333 335 335 333 334 331 330 331 331 330
338 336 334 337 338 337 337 333 338 338 339 342 342 339 337 337 336 336 335 335 335 334 332 328 327 334 336 333 331 331 331 330 330 329 334 335 335 335 335 332 332 332 328
339 337 339 337 335 340 336 337 335 341 343 343 339 341 338 337 337 337 336 337 335 335 332 331 328 328 332 337 336 331 330 330 331 328 328 336 336 334 333 334 335 333 329
342 341 340 340 339 336 338 339 336 338 338 339 342 338 340 339 339 337 334 335 336 335 333 333 333 329 328 332 336 336 331 329 329 327 329 334 337 333 334 334 334 334 331
346 342 343 342 340 339 338 337 338 339 339 340 340 339 340 340 339 338 338 337 335 335 334 334 333 332 329 328 336 337 331 330 329 326 330 335 335 333 333 333 334 333 332
349 345 344 344 342 339 339 339 337 335 336 339 338 338 339 339 337 337 336 335 333 332 333 334 333 333 330 327 334 337 337 329 329 326 328 333 334 335 334 333 333 333 332
348 348 346 345 342 343 340 337 337 336 338 337 339 338 339 339 336 338 336 333 334 333 333 334 334 333 332 328 328 333 337 335 329 328 326 333 335 335 333 333 333 333 335
348 347 348 345 345 343 340 338 337 338 338 337 337 340 341 338 337 338 335 333 332 332 334 334 333 333 332 328 328 333 334 335 331 329 327 333 334 334 333 333 332 333 331
348 347 347 346 345 342 341 338 339 337 338 338 339 339 339 337 335 334 334 333 333 333 333 333 332 332 329 330 329 329 331 330 331 332 327 332 334 333 331 331 333 331 331
347 347 346 344 345 342 341 340 339 338 336 341 340 338 336 335 335 335 333 332 333 334 334 333 332 332 332 331 331 329 327 329 331 329 327 330 335 335 330 331 332 332 326
347 346 344 343 344 343 340 340 339 337 337 341 339 337 335 334 332 333 333 333 333 332 334 333 330 331 332 331 327 330 329 326 330 328 325 331 334 333 333 331 332 329 325
346 342 343 342 343 342 342 338 338 337 341 339 336 334 334 333 333 333 333 332 333 331 332 331 331 331 332 330 323 328 329 321 329 330 328 331 334 332 333 333 331 326 324
345 343 342 342 342 340 341 338 341 341 338 336 335 333 332 331 330 330 331 331 331 331 330 329 330 331 332 331 331 330 324 323 326 328 328 332 332 333 333 332 328 328 326
343 342 341 342 342 340 343 341 339 337 337 336 334 332 332 331 329 330 329 332 331 331 332 330 329 330 329 326 325 328 328 324 325 327 329 332 333 333 332 330 328 327 326
342 341 344 342 343 342 340 338 338 336 335 333 333 333 333 333 332 329 331 330 331 332 331 330 329 329 325 325 327 330 329 324 328 328 331 333 333 332 331 329 328 326 328
345 342 345 343 341 340 339 337 336 333 334 332 333 333 333 332 333 329 330 328 330 329 330 329 328 330 328 326 329 331 328 325 328 329 330 333 333 331 329 328 327 328 325
345 344 342 340 339 338 337 335 334 334 334 333 331 330 333 332 331 331 329 328 328 327 330 327 329 329 331 330 331 331 326 328 328 328 332 333 331 329 328 327 326 324 320
342 341 340 337 336 335 334 334 333 334 333 333 332 330 333 332 330 331 330 327 325 327 329 331 331 330 331 331 331 332 330 329 329 332 332 330 330 328 327 326 325 320 321
338 336 335 334 332 332 332 332 334 334 333 333 332 331 332 331 332 330 330 330 329 328 328 329 329 331 331 331 330 329 326 329 330 330 330 330 329 327 325 324 321 321 321
334 332 331 331 331 333 333 334 334 333 334 333 333 331 331 331 331 331 332 332 331 330 329 329 328 327 328 328 326 325 324 325 326 328 328 327 326 324 322 323 322 321 321
331 331 332 332 333 333 335 334 335 335 332 332 330 330 331 332 332 332 332 333 332 331 329 326 326 325 325 325 325 323 321 322 322 325 325 324 322 322 324 322 321 321 319
331 332 332 333 332 330 329 329 332 333 332 330 329 332 332 331 331 331 331 331 331 330 328 326 324 324 325 324 323 322 321 321 320 322 321 321 322 323 323 322 321 320 316
330 330 332 332 334 328 328 328 332 333 331 332 333 332 332 332 331 330 331 331 332 329 327 326 324 324 324 324 323 322 322 321 320 320 320 321 321 320 319 319 318 317 317
332 333 333 334 330 329 328 329 331 332 333 332 333 332 332 331 331 330 331 330 329 329 327 327 325 325 324 324 324 323 321 320 320 319 319 319 320 319 317 317 317 320 321
333 334 334 334 330 327 328 330 330 329 330 330 330 331 330 329 328 329 329 329 328 328 328 326 325 325 325 324 323 321 320 320 319 319 319 319 318 318 319 319 318 319 318
334 333 333 333 329 326 327 328 327 326 326 327 328 328 328 327 327 329 328 327 325 325 325 324 323 323 323 322 322 322 320 320 319 318 319 319 318 317 318 317 320 319 317

GFSMA_925_thetae_042.txt.gz
Theta_e
319 320 320 319 318 319 321 320 321 321 321 323 325 326 326 333 338 339 338 335 335 335 332 331 329 327 328 332 332 332 329 328 330 330 335 336 334 332 330 332 332 333 330
320 320 320 320 321 321 324 325 324 323 322 322 323 326 325 333 337 340 337 336 335 334 333 333 333 331 330 328 331 331 330 328 328 330 331 335 335 331 327 330 332 334 329
333 329 326 323 321 322 326 329 329 329 328 326 327 328 331 335 336 339 336 336 335 334 333 333 333 330 329 328 329 330 330 330 329 329 331 333 335 334 331 332 331 332 330
340 339 336 333 329 326 327 331 333 332 332 331 331 332 333 338 339 339 337 337 336 335 335 334 334 332 330 329 329 328 329 328 329 329 329 331 333 334 332 331 329 331 331
343 342 341 338 336 333 331 333 335 335 334 334 335 336 335 339 342 340 339 337 336 336 335 334 335 333 331 330 329 329 329 329 330 329 329 329 330 332 333 333 333 330 333
345 345 343 340 339 336 333 335 336 336 335 336 336 337 341 341 341 340 339 337 336 336 335 334 334 334 332 332 331 329 330 330 329 329 329 329 328 329 333 333 333 332 333
348 348 345 342 340 339 336 335 337 337 336 336 336 338 339 339 339 339 337 337 335 335 334 335 333 332 333 332 332 330 328 332 329 330 330 328 326 329 333 334 332 333 333
346 347 346 344 342 339 338 337 337 337 338 338 337 336 336 336 339 339 337 336 335 334 335 334 332 333 332 332 332 331 328 330 330 329 329 327 326 330 334 332 333 332 333
344 343 342 345 343 341 340 339 339 338 337 337 337 335 334 333 328 332 334 335 335 334 333 332 332 332 332 332 330 331 327 327 332 330 328 327 327 332 333 333 332 332 333
339 339 342 345 345 343 342 342 341 339 339 337 337 336 335 333 332 330 331 333 333 332 332 332 332 332 332 331 331 329 327 327 329 330 329 327 327 332 334 333 332 332 333
335 338 344 347 346 344 343 344 342 340 338 337 337 337 336 335 333 329 330 326 332 332 331 330 330 331 331 331 330 326 327 328 330 330 330 328 328 333 333 333 332 332 331
344 346 347 348 347 346 344 344 343 341 339 337 336 336 335 334 330 328 323 323 325 329 329 330 331 331 331 331 327 325 328 329 330 330 329 328 328 333 333 334 331 331 330
348 348 348 347 347 346 344 344 343 341 339 337 336 337 336 335 333 331 327 323 323 327 330 330 330 331 331 330 328 329 329 329 328 328 328 326 329 333 332 332 331 330 329
347 347 347 346 346 344 342 343 341 340 338 337 336 337 334 332 331 330 329 325 324 322 327 327 330 330 330 328 328 329 328 329 327 329 328 326 328 333 333 331 331 330 329
346 346 345 343 342 341 342 341 340 339 338 337 337 334 332 330 330 329 328 328 325 323 322 328 329 329 328 325 329 328 328 329 325 329 328 326 328 333 330 332 331 329 328
346 345 342 341 341 341 341 340 340 339 339 336 334 333 331 332 332 331 330 329 329 325 323 327 328 327 327 329 328 326 328 325 327 329 328 327 331 332 332 331 331 329 327
344 342 341 341 340 341 340 341 339 337 336 335 333 333 332 331 331 330 329 329 328 328 323 326 328 329 327 327 327 328 326 326 328 328 327 329 332 332 332 332 330 328 326
342 341 341 341 341 341 340 338 336 336 335 335 332 332 331 330 331 330 330 328 328 327 326 325 327 327 327 326 328 329 327 326 329 329 329 331 331 331 331 330 328 326 325
341 341 343 342 341 339 338 335 334 333 333 333 332 331 330 328 330 330 330 326 325 327 327 328 329 328 327 328 327 328 327 327 328 330 330 331 331 332 330 329 328 326 326
342 342 340 339 338 337 335 333 331 332 333 333 332 332 330 329 331 329 330 327 326 328 328 329 328 327 326 326 326 323 324 326 328 330 331 331 331 330 328 328 327 326 324
339 338 337 336 335 334 332 331 332 333 333 333 332 332 330 330 331 329 330 328 327 328 328 328 326 326 325 324 323 323 323 325 326 328 329 329 328 328 328 327 327 324 320
334 333 332 333 333 333 334 334 333 333 333 332 332 331 330 330 331 330 330 330 328 327 326 326 325 326 325 324 323 322 323 323 321 324 325 325 328 327 327 326 323 321 321
331 332 332 331 331 331 330 331 331 331 331 331 330 329 329 327 329 331 331 330 329 327 327 328 326 326 324 324 323 323 324 323 322 323 325 322 325 324 324 324 321 321 320
332 331 330 328 328 328 328 330 332 331 329 329 330 328 327 329 330 330 330 330 329 328 327 327 326 325 325 324 324 324 323 322 323 323 324 321 322 323 323 322 322 321 321
332 330 328 327 327 328 330 331 331 331 330 330 330 328 327 329 330 330 330 329 328 327 327 327 326 325 325 324 325 324 322 322 321 320 321 321 322 321 322 322 321 320 319
331 330 327 327 328 328 328 329 330 329 329 330 330 330 329 329 330 329 329 327 325 325 324 324 324 324 324 324 324 325 323 321 320 319 320 321 320 321 318 320 320 319 317

GFSMA_925_thetae_045.txt.gz
Theta_e
320 319 320 320 318 319 319 317 317 318 319 319 323 326 327 326 326 330 338 338 337 335 335 334 333 331 329 329 328 329 331 330 331 334 335 335 334 332 333 331 333 331 330
320 320 320 320 320 320 319 318 318 319 320 320 320 323 326 327 327 329 337 338 336 334 335 333 333 332 330 329 328 329 329 329 328 329 331 335 334 333 330 331 332 332 332
322 321 321 321 320 320 320 321 322 325 326 325 325 324 325 326 326 329 336 338 335 335 335 333 333 333 332 330 328 328 329 329 328 327 328 332 335 335 333 327 329 332 332
328 329 327 328 328 326 323 323 324 328 329 329 329 329 329 329 329 333 336 339 337 336 335 334 334 334 333 330 329 328 328 328 328 328 328 330 332 334 334 330 331 331 333
338 337 337 337 336 334 331 328 327 328 330 331 332 332 333 332 333 337 339 339 337 336 334 334 335 334 334 331 329 333 329 328 328 328 329 329 330 332 333 331 330 330 330
340 341 340 340 339 337 335 332 330 330 332 332 333 334 335 335 336 339 340 340 337 335 331 334 334 334 334 332 331 331 331 329 328 329 329 329 329 330 332 333 332 331 330
343 343 342 342 340 338 339 336 333 332 333 334 334 335 335 336 340 340 340 339 337 335 334 334 334 334 332 333 332 331 331 331 330 328 329 329 329 329 329 332 333 332 332
345 346 346 345 343 339 337 336 335 334 334 335 335 334 333 335 337 338 339 338 337 335 335 334 334 333 332 332 332 332 331 330 331 332 328 329 329 327 327 329 332 331 332
341 343 346 346 345 342 340 338 337 335 335 336 336 336 332 334 327 331 334 334 334 334 334 333 334 332 332 332 331 331 331 330 329 332 328 329 328 326 327 332 332 332 332
341 343 345 346 346 344 340 340 339 336 336 336 335 336 334 333 331 329 330 331 332 333 333 332 331 332 331 332 332 331 331 329 327 329 328 329 328 326 329 333 332 332 332
340 338 339 339 341 342 342 341 340 337 337 337 337 335 334 333 332 331 330 327 331 332 332 332 331 331 331 331 331 330 331 328 326 328 328 328 327 327 331 333 333 332 333
331 333 338 341 341 343 343 343 341 341 340 338 337 337 336 334 332 329 329 323 323 328 329 329 329 329 329 331 331 330 326 327 327 329 328 329 328 327 333 333 332 332 332
333 337 341 343 344 345 345 344 343 343 341 339 337 336 335 335 334 332 328 322 322 325 328 328 329 329 330 331 329 327 326 328 329 330 330 329 328 327 333 333 332 332 331
335 335 343 346 346 346 345 344 342 343 342 339 336 336 336 335 335 333 330 324 322 321 325 327 328 330 330 330 328 327 329 329 329 328 328 329 328 328 332 333 330 331 331
337 343 347 347 346 346 345 342 342 342 340 338 336 335 335 333 332 331 330 328 324 322 321 326 328 329 330 327 325 328 328 328 328 327 329 328 327 328 331 331 329 330 330
343 345 346 346 345 343 342 342 341 339 338 337 336 335 333 330 329 328 328 328 327 324 321 324 328 328 325 328 328 328 328 327 327 327 329 326 327 331 332 330 330 330 329
344 345 345 343 341 341 341 340 339 338 338 337 335 334 332 331 331 331 330 328 328 327 322 325 327 328 328 327 328 327 327 326 326 328 328 327 328 330 331 330 329 329 328
345 344 343 341 341 341 339 340 339 338 337 334 334 333 331 331 331 330 328 328 327 327 326 324 327 327 327 327 327 328 326 327 327 328 327 328 330 331 331 330 330 328 327
344 342 341 340 340 340 340 340 338 335 335 334 333 332 331 331 330 329 328 328 326 326 326 327 326 325 326 326 327 326 326 329 328 328 329 330 330 331 331 331 330 327 326
341 341 340 340 340 339 339 336 334 333 333 333 332 331 331 330 328 328 329 327 325 327 327 327 327 326 324 325 325 325 324 325 327 327 328 329 331 331 331 330 328 327 325
340 341 341 341 340 339 336 334 331 332 332 332 332 332 331 329 329 330 329 327 326 327 328 326 326 325 324 324 324 323 323 323 324 328 330 330 330 330 329 328 327 326 326
341 340 339 338 337 335 332 330 331 331 332 332 332 332 331 330 330 329 329 328 327 327 327 326 325 325 325 323 322 322 323 324 322 324 326 325 327 327 328 327 327 326 322
337 336 335 334 333 332 332 333 333 332 332 332 331 331 330 329 329 330 330 329 327 327 327 327 325 324 324 324 323 322 323 323 321 324 326 322 326 327 326 327 326 322 320
332 331 331 330 330 331 331 331 330 330 330 330 330 329 329 328 328 330 330 330 328 327 327 327 328 326 325 324 324 323 323 323 323 324 324 321 322 324 324 324 322 320 320
330 329 328 328 328 328 329 330 331 330 329 328 329 328 327 326 328 329 329 329 328 326 326 326 326 326 326 324 323 323 323 322 321 321 322 322 322 321 322 322 322 321 321
329 327 326 326 327 329 330 331 330 329 329 328 329 328 326 327 328 329 329 328 326 325 326 325 325 325 324 323 323 323 323 322 321 320 322 322 321 322 321 322 321 321 320